Location: Villingen
(48.0639°N, 8.4609°E)
Time: 09:42:41
(UTC+01:00)

N. Korean satellite - Visible Passes

Search period start: 19 November 2017 00:00
Search period end: 29 November 2017 00:00
Orbit: 460 x 515 km, 97.2° (Epoch: 18 November)

Date Brightness Start Highest point End Pass type
(mag) Time Alt. Az. Time Alt. Az. Time Alt. Az.
19 Nov 6.4 18:08:29 10° SSE 18:11:57 65° ENE 18:15:30 10° N visible
20 Nov 7.6 07:05:29 10° NNE 07:09:10 54° E 07:12:50 10° S visible
20 Nov 7.1 17:45:21 10° SE 17:48:33 34° ENE 17:51:49 10° N visible
20 Nov 9.4 19:19:43 10° SW 19:22:12 18° W 19:24:44 10° NW visible
21 Nov 9.0 06:42:17 10° NNE 06:45:36 29° E 06:48:55 10° SSE visible
21 Nov 7.9 17:22:37 10° ESE 17:25:14 20° ENE 17:27:53 10° NNE visible
21 Nov 8.3 18:55:22 10° SSW 18:58:34 32° W 19:01:50 10° NNW visible
22 Nov 9.8 06:19:28 10° NE 06:21:57 17° E 06:24:27 10° SE visible
22 Nov 6.9 18:31:30 10° S 18:35:00 64° W 18:38:35 10° NNW visible
23 Nov 6.4 18:08:00 10° SSE 18:11:30 65° ENE 18:15:06 10° N visible
23 Nov 10.2 19:45:14 10° W 19:45:29 10° W 19:45:44 10° W visible
24 Nov 7.6 07:05:03 10° NNE 07:08:45 54° E 07:12:26 10° S visible
24 Nov 7.2 17:44:51 10° SE 17:48:06 34° ENE 17:51:25 10° N visible
24 Nov 9.4 19:19:13 10° SW 19:21:44 18° W 19:24:20 10° NW visible
25 Nov 8.9 06:41:50 10° NNE 06:45:10 29° E 06:48:29 10° SSE visible
25 Nov 7.9 17:22:07 10° ESE 17:24:46 20° ENE 17:27:28 10° NNE visible
25 Nov 8.3 18:54:51 10° SSW 18:58:05 33° W 19:01:24 10° NNW visible
26 Nov 9.8 06:19:00 10° NE 06:21:30 17° E 06:24:00 10° SE visible
26 Nov 7.0 18:30:59 10° S 18:34:30 64° W 18:38:08 10° NNW visible
27 Nov 6.5 18:07:28 10° SSE 18:11:00 65° ENE 18:14:38 10° N visible
27 Nov 10.2 19:44:22 10° W 19:44:58 10° W 19:45:35 10° WNW visible
28 Nov 7.6 07:04:33 10° NNE 07:08:15 54° E 07:11:57 10° S visible
28 Nov 7.2 17:44:18 10° SE 17:47:34 34° ENE 17:50:55 10° N visible
28 Nov 9.4 19:18:37 10° SW 19:21:13 19° W 19:23:52 10° NW visible
